Danville, IN

4:58 AM EST on December 11, 2017 (GMT -0500)
Vermilion County

Weather History for KDNV - November, 2011

Change the Weather History Date:

Wednesday, November 9, 2011

  Actual Average (KLAF) Record (KLAF)
Temperature  
Mean Temperature 49 °F -  
Max Temperature 59 °F 55 °F 74 °F (1975)
Min Temperature 39 °F 37 °F 12 °F (1991)
Degree Days  
Heating Degree Days 16    
Moisture  
Dew Point 47 °F    
Average Humidity 87    
Maximum Humidity 94    
Minimum Humidity 76    
Precipitation  
Precipitation 0.00 in - - ()
Sea Level Pressure  
Sea Level Pressure 29.78 in    
Wind  
Wind Speed 20 mph (SW)    
Max Wind Speed 34 mph    
Max Gust Speed 45 mph    
Visibility 9 miles    
Events Rain    
Averages and records for this station are not official NWS values.
T = Trace of Precipitation, MM = Missing Value Source: NWS Daily Summary

Daily Weather History Graph

Daily Weather History Graph

Search for Another Location

Airport or City:

Trip Planner

Search our weather history database for the weather conditions in past years. The results will help you decide how hot, cold, wet, or windy it might be!

Date:

Astronomy

Nov. 09, 2011 Rise Set
Actual Time 6:28 AM CST 4:39 PM CST
Civil Twilight 6:00 AM CST 5:07 PM CST
Nautical Twilight 5:27 AM CST 5:40 PM CST
Astronomical Twilight 4:55 AM CST 6:12 PM CST
Moon 3:50 PM CST (11/9) 5:24 AM CST (11/9)
Length of Visible Light 11h 07m
Length of Day
10h 10m
Waxing Gibbous, 99% of the Moon is Illuminated
Nov 9
Waxing Gibbous
Nov 10
Full
Nov 18
Last Quarter
Nov 25
New
Dec 2
First Quarter

Hourly Weather History & Observations

Time (CST) Temp. Windchill Dew Point Humidity Pressure Visibility Wind Dir Wind Speed Gust Speed Precip Events Conditions
12:15 AM 59.0 °F - 57.2 °F 94% 29.86 in 10.0 mi South 18.4 mph 24.2 mph N/A Rain Light Rain
12:35 AM 59.0 °F - 57.2 °F 94% 29.85 in 10.0 mi South 17.3 mph 23.0 mph N/A Rain Light Rain
12:55 AM 59.0 °F - 57.2 °F 94% 29.83 in 10.0 mi South 16.1 mph 27.6 mph N/A Rain Rain
1:15 AM 59.0 °F - 57.2 °F 94% 29.82 in 7.0 mi South 18.4 mph 27.6 mph N/A Rain Light Rain
1:35 AM 59.0 °F - 57.2 °F 94% 29.80 in 10.0 mi SSE 16.1 mph 20.7 mph N/A Rain Rain
1:55 AM 59.0 °F - 57.2 °F 94% 29.79 in 10.0 mi South 18.4 mph 23.0 mph N/A Rain Light Rain
2:15 AM 59.0 °F - 55.4 °F 88% 29.77 in 10.0 mi SE 15.0 mph - N/A Rain Rain
2:35 AM 59.0 °F - 55.4 °F 88% 29.75 in 10.0 mi SSE 16.1 mph 19.6 mph N/A Rain Light Rain
2:55 AM 59.0 °F - 55.4 °F 88% 29.75 in 10.0 mi SSE 16.1 mph 21.9 mph N/A Rain Light Rain
3:15 AM 59.0 °F - 55.4 °F 88% 29.73 in 10.0 mi SSE 18.4 mph - N/A Rain Rain
3:35 AM 59.0 °F - 55.4 °F 88% 29.72 in 10.0 mi SSE 18.4 mph 24.2 mph N/A Rain Rain
3:55 AM 59.0 °F - 55.4 °F 88% 29.71 in 7.0 mi SSE 18.4 mph 24.2 mph N/A Rain Light Rain
4:15 AM 57.2 °F - 55.4 °F 94% 29.70 in 10.0 mi SSE 18.4 mph 23.0 mph N/A Rain Light Rain
4:35 AM 57.2 °F - 55.4 °F 94% 29.69 in 10.0 mi SSE 13.8 mph 19.6 mph N/A Rain Rain
5:15 AM 59.0 °F - 55.4 °F 88% 29.66 in 10.0 mi SSE 17.3 mph 21.9 mph N/A Rain Light Rain
5:35 AM 57.2 °F - 55.4 °F 94% 29.64 in 7.0 mi SSE 16.1 mph 24.2 mph N/A Rain Rain
5:55 AM 57.2 °F - 55.4 °F 94% 29.64 in 5.0 mi South 13.8 mph - N/A Rain Heavy Rain
6:15 AM 59.0 °F - 55.4 °F 88% 29.63 in 5.0 mi South 17.3 mph 26.5 mph N/A Rain Heavy Rain
6:35 AM 59.0 °F - 55.4 °F 88% 29.63 in 5.0 mi South 25.3 mph 34.5 mph N/A Rain Rain
6:55 AM 59.0 °F - 55.4 °F 88% 29.64 in 4.0 mi South 25.3 mph 36.8 mph N/A Rain Light Rain
7:15 AM 59.0 °F - 55.4 °F 88% 29.64 in 7.0 mi South 20.7 mph 27.6 mph N/A Rain Light Rain
7:35 AM 59.0 °F - 55.4 °F 88% 29.64 in 10.0 mi South 21.9 mph 28.8 mph N/A Rain Rain
7:55 AM 59.0 °F - 57.2 °F 94% 29.63 in 10.0 mi South 20.7 mph 26.5 mph N/A Rain Rain
8:15 AM 55.4 °F - 51.8 °F 88% 29.66 in 10.0 mi SW 20.7 mph 29.9 mph N/A Rain Rain
8:35 AM 55.4 °F - 51.8 °F 88% 29.66 in 10.0 mi WSW 19.6 mph 33.4 mph N/A Rain Rain
8:55 AM 55.4 °F - 51.8 °F 88% 29.67 in 10.0 mi SW 25.3 mph 41.4 mph N/A Rain Rain
9:15 AM 55.4 °F - 50.0 °F 82% 29.68 in 10.0 mi SW 23.0 mph 39.1 mph N/A Rain Rain
9:35 AM 55.4 °F - 50.0 °F 82% 29.69 in 10.0 mi SW 26.5 mph 43.7 mph N/A Rain Rain
9:55 AM 53.6 °F - 48.2 °F 82% 29.70 in 10.0 mi WSW 27.6 mph 38.0 mph N/A   Mostly Cloudy
10:15 AM 50.0 °F - 44.6 °F 82% 29.72 in 10.0 mi WSW 34.5 mph 42.6 mph N/A   Overcast
10:35 AM 51.8 °F - 44.6 °F 76% 29.72 in 10.0 mi SW 32.2 mph 43.7 mph N/A   Mostly Cloudy
10:55 AM 50.0 °F - 42.8 °F 76% 29.73 in 10.0 mi WSW 34.5 mph 44.9 mph N/A   Mostly Cloudy
11:15 AM 48.2 °F - 42.8 °F 82% 29.74 in 10.0 mi WSW 26.5 mph 41.4 mph N/A   Overcast
11:35 AM 46.4 °F 37.7 °F 42.8 °F 87% 29.75 in 7.0 mi SW 26.5 mph 33.4 mph N/A Rain Light Rain
11:55 AM 44.6 °F 34.9 °F 41.0 °F 87% 29.76 in 5.0 mi SW 28.8 mph 40.3 mph N/A Rain Light Rain
12:15 PM 42.8 °F 31.8 °F 41.0 °F 93% 29.77 in 7.0 mi WSW 33.4 mph 41.4 mph N/A Rain Rain
12:35 PM 42.8 °F 32.7 °F 39.2 °F 87% 29.78 in 10.0 mi WSW 27.6 mph 42.6 mph N/A   Overcast
12:55 PM 42.8 °F 32.3 °F 37.4 °F 81% 29.79 in 10.0 mi WSW 29.9 mph 39.1 mph N/A   Overcast
1:15 PM 41.0 °F 29.8 °F 37.4 °F 87% 29.80 in 7.0 mi WSW 29.9 mph 43.7 mph N/A Rain Light Rain
1:35 PM 41.0 °F 30.7 °F 37.4 °F 87% 29.81 in 7.0 mi WSW 25.3 mph 36.8 mph N/A Rain Light Rain
1:55 PM 41.0 °F 30.7 °F 37.4 °F 87% 29.83 in 10.0 mi West 25.3 mph 32.2 mph N/A Rain Light Rain
2:15 PM 41.0 °F 30.2 °F 35.6 °F 81% 29.84 in 10.0 mi West 27.6 mph 35.7 mph N/A   Overcast
2:35 PM 41.0 °F 31.9 °F 35.6 °F 81% 29.86 in 10.0 mi West 19.6 mph 32.2 mph N/A   Overcast
2:55 PM 41.0 °F 31.6 °F 35.6 °F 81% 29.88 in 10.0 mi West 20.7 mph 33.4 mph N/A   Overcast
3:15 PM 41.0 °F 30.9 °F 35.6 °F 81% 29.90 in 10.0 mi West 24.2 mph 29.9 mph N/A   Overcast
3:35 PM 41.0 °F 31.6 °F 37.4 °F 87% 29.91 in 7.0 mi West 20.7 mph 29.9 mph N/A Rain Light Rain
3:55 PM 41.0 °F 30.9 °F 35.6 °F 81% 29.93 in 7.0 mi West 24.2 mph 32.2 mph N/A Rain Light Rain
4:15 PM 41.0 °F 31.6 °F 35.6 °F 81% 29.94 in 10.0 mi West 20.7 mph 32.2 mph N/A   Overcast
4:35 PM 41.0 °F 32.2 °F 35.6 °F 81% 29.95 in 10.0 mi West 18.4 mph 26.5 mph N/A   Overcast
4:55 PM 41.0 °F 32.5 °F 35.6 °F 81% 29.97 in 7.0 mi WNW 17.3 mph 25.3 mph N/A Rain Light Rain
5:15 PM 39.2 °F 31.6 °F 37.4 °F 93% 29.98 in 5.0 mi WNW 12.7 mph 23.0 mph N/A Rain Light Rain
5:35 PM 41.0 °F 32.2 °F 35.6 °F 81% 29.99 in 10.0 mi WNW 18.4 mph 29.9 mph N/A   Overcast
5:55 PM 41.0 °F 31.9 °F 35.6 °F 81% 30.00 in 10.0 mi WNW 19.6 mph 27.6 mph N/A   Overcast
6:15 PM 41.0 °F 31.9 °F 35.6 °F 81% 30.01 in 10.0 mi WNW 19.6 mph 24.2 mph N/A   Overcast
6:35 PM 41.0 °F 33.1 °F 35.6 °F 81% 30.02 in 10.0 mi WNW 15.0 mph 24.2 mph N/A   Overcast
6:55 PM 41.0 °F 33.1 °F 35.6 °F 81% 30.02 in 10.0 mi West 15.0 mph 21.9 mph N/A   Overcast
7:15 PM 41.0 °F 33.5 °F 35.6 °F 81% 30.03 in 10.0 mi West 13.8 mph 20.7 mph N/A   Overcast
7:35 PM 41.0 °F 35.2 °F 35.6 °F 81% 30.04 in 10.0 mi West 9.2 mph - N/A   Overcast
7:55 PM 41.0 °F 33.9 °F 35.6 °F 81% 30.04 in 10.0 mi West 12.7 mph - N/A   Overcast
8:15 PM 37.4 °F 30.3 °F 35.6 °F 93% 30.04 in 10.0 mi West 10.4 mph - N/A   Mostly Cloudy
8:35 PM 37.4 °F 30.8 °F 35.6 °F 93% 30.05 in 10.0 mi WSW 9.2 mph - N/A   Clear
8:55 PM 37.4 °F 30.8 °F 35.6 °F 93% 30.05 in 10.0 mi WSW 9.2 mph - N/A   Clear
9:15 PM 37.4 °F 31.4 °F 33.8 °F 87% 30.05 in 10.0 mi WSW 8.1 mph - N/A   Scattered Clouds
9:35 PM 37.4 °F 30.8 °F 33.8 °F 87% 30.04 in 10.0 mi SW 9.2 mph - N/A   Clear
9:55 PM 37.4 °F 30.8 °F 33.8 °F 87% 30.04 in 10.0 mi WSW 9.2 mph - N/A   Clear
10:15 PM 37.4 °F 30.3 °F 33.8 °F 87% 30.04 in 10.0 mi WSW 10.4 mph - N/A   Clear
10:35 PM 35.6 °F 29.2 °F 33.8 °F 93% 30.04 in 10.0 mi SW 8.1 mph - N/A   Clear
10:55 PM 35.6 °F 29.2 °F 33.8 °F 93% 30.04 in 10.0 mi WSW 8.1 mph - N/A   Clear
11:15 PM 35.6 °F 28.0 °F 33.8 °F 93% 30.03 in 10.0 mi WSW 10.4 mph - N/A   Clear
11:35 PM 35.6 °F 27.5 °F 32.0 °F 87% 30.03 in 10.0 mi WSW 11.5 mph - N/A   Clear
11:55 PM 35.6 °F 27.1 °F 32.0 °F 87% 30.03 in 10.0 mi WSW 12.7 mph 18.4 mph N/A   Clear